Overview Statistics Trail Chart Weather Telemetry Raw packets
 

This is the latest recevied weather packets stored in our database for station/object KN6DHD. If no packets are shown the sender has not sent any weather packets the latest 10 day(s).

<< 111 112 113 114 >>
Time Temp. Humidity Pressure Rain* Wind** Luminosity Snow
1776881762 12.78° C 99% 1024.3 hPa 0 mm - 325 W/m² -
1776881457 12.78° C 99% 1024.3 hPa 0 mm - 277 W/m² -
1776881154 12.78° C 99% 1024.4 hPa 0 mm - 188 W/m² -
1776880850 12.78° C 99% 1024.6 hPa 0 mm - 249 W/m² -
1776880545 12.78° C 99% 1024.4 hPa 0 mm - 218 W/m² -
1776880241 12.22° C 99% 1024.4 hPa 0 mm - 214 W/m² -
1776879938 12.22° C 99% 1024.3 hPa 0 mm - 214 W/m² -
1776879634 12.22° C 99% 1024.1 hPa 0 mm - 229 W/m² -
1776879330 12.22° C 99% 1024.2 hPa 0 mm - 226 W/m² -
1776879027 12.22° C 99% 1024.1 hPa 0 mm - 253 W/m² -
1776878724 12.22° C 99% 1023.9 hPa 0 mm - 225 W/m² -
1776878420 12.22° C 99% 1023.8 hPa 0 mm - 232 W/m² -
1776878116 11.67° C 99% 1023.8 hPa 0 mm - 241 W/m² -
1776877812 11.67° C 99% 1023.9 hPa 0 mm - 229 W/m² -
1776877509 11.67° C 99% 1023.8 hPa 0 mm - 209 W/m² -
1776877207 11.67° C 99% 1023.6 hPa 0 mm - 177 W/m² -
1776876903 11.67° C 99% 1023.5 hPa 0 mm - 181 W/m² -
1776876601 11.67° C 99% 1023.5 hPa 0 mm - 210 W/m² -
1776876297 11.67° C 99% 1023.6 hPa 0 mm - 179 W/m² -
1776875994 11.11° C 99% 1023.5 hPa 0 mm - 164 W/m² -

* Rain latest hour (hover to see other rain measurements)
** Current wind speed in m/s (hover to see current wind gust speed)